NOS121 LIEE-LIPX

Flight info

Callsign NOS121
Flight time 1h 4m
Altitude 34000
Route KOVAS Q125 DEXUL DCT VAVAX DCT UREXE DCT BEROK L153 OSBUL
Aircraft B789/H-SDE1E2E3FGHIJ2J3J4J5M1RWXY/LB1D1

Departure

Time 2026-04-28 19:54
Airport Cagliari Elmas Airport (LIEE)

Arrival

Time 2026-04-28 20:58
Airport Verona Villafranca Valerio Catullo Airport (LIPX)
Time Latitude Longitude Altitude Speed Heading
2026-04-28 19:34 39.25243 9.05852 22 ft 0 kts 66°
2026-04-28 19:43 39.25242 9.05852 22 ft 0 kts 66°
2026-04-28 19:43 39.25237 9.05838 26 ft 3 kts 59°
2026-04-28 19:43 39.25226 9.05817 26 ft 3 kts 41°
2026-04-28 19:43 39.25210 9.05803 27 ft 3 kts 19°
2026-04-28 19:44 39.25190 9.05796 28 ft 3 kts 12°
2026-04-28 19:44 39.25178 9.05792 28 ft 0 kts 23°
2026-04-28 19:46 39.25187 9.05797 28 ft 3 kts 17°
2026-04-28 19:46 39.25212 9.05792 26 ft 0 kts 337°
2026-04-28 19:46 39.25217 9.05790 26 ft 1 kts 337°
2026-04-28 19:46 39.25230 9.05782 26 ft 3 kts 336°
2026-04-28 19:47 39.25250 9.05766 25 ft 4 kts 322°
2026-04-28 19:47 39.25276 9.05740 25 ft 6 kts 321°
2026-04-28 19:47 39.25312 9.05701 24 ft 8 kts 319°
2026-04-28 19:47 39.25354 9.05649 24 ft 9 kts 311°
2026-04-28 19:48 39.25390 9.05572 25 ft 11 kts 288°
2026-04-28 19:48 39.25410 9.05474 26 ft 12 kts 294°
2026-04-28 19:48 39.25447 9.05376 26 ft 13 kts 304°
2026-04-28 19:48 39.25510 9.05285 24 ft 14 kts 316°
2026-04-28 19:49 39.25587 9.05196 27 ft 16 kts 318°
2026-04-28 19:49 39.25672 9.05098 26 ft 17 kts 317°
2026-04-28 19:49 39.25761 9.04990 27 ft 18 kts 316°
2026-04-28 19:49 39.25855 9.04878 26 ft 16 kts 317°
2026-04-28 19:50 39.26005 9.04701 29 ft 12 kts 318°
2026-04-28 19:50 39.26068 9.04630 30 ft 13 kts 319°
2026-04-28 19:50 39.26117 9.04540 27 ft 6 kts 287°
2026-04-28 19:51 39.26120 9.04525 24 ft 2 kts 283°
2026-04-28 19:51 39.26120 9.04524 24 ft 0 kts 283°
2026-04-28 19:52 39.26125 9.04445 26 ft 5 kts 251°
2026-04-28 19:52 39.26102 9.04405 29 ft 7 kts 222°
2026-04-28 19:52 39.26054 9.04388 25 ft 7 kts 173°
2026-04-28 19:52 39.26029 9.04406 28 ft 1 kts 141°
2026-04-28 19:53 39.26015 9.04421 26 ft 6 kts 141°
2026-04-28 19:53 39.25852 9.04610 27 ft 65 kts 137°
2026-04-28 19:53 39.25337 9.05208 26 ft 133 kts 137°
2026-04-28 19:53 39.24533 9.06139 391 ft 163 kts 139°
2026-04-28 19:54 39.23717 9.07083 1505 ft 160 kts 137°
2026-04-28 19:54 39.23446 9.07398 1768 ft 164 kts 135°
2026-04-28 19:54 39.21822 9.09283 2543 ft 212 kts 137°
2026-04-28 19:54 39.20711 9.10563 3363 ft 217 kts 139°
2026-04-28 19:55 39.19471 9.11730 4215 ft 222 kts 158°
2026-04-28 19:55 39.17954 9.12027 5153 ft 224 kts 185°
2026-04-28 19:55 39.16494 9.11348 6060 ft 227 kts 214°
2026-04-28 19:55 39.15355 9.09919 6906 ft 230 kts 227°
2026-04-28 19:56 39.14341 9.08348 7721 ft 234 kts 239°
2026-04-28 19:56 39.13887 9.06338 8584 ft 237 kts 265°
2026-04-28 19:56 39.14166 9.04202 9154 ft 257 kts 290°
2026-04-28 19:56 39.15284 9.02228 9477 ft 285 kts 319°
2026-04-28 19:57 39.17068 9.01162 10289 ft 294 kts 347°
2026-04-28 19:57 39.19155 9.01160 10859 ft 305 kts
2026-04-28 19:57 39.21294 9.01466 11500 ft 317 kts
2026-04-28 19:57 39.23583 9.01819 11662 ft 346 kts
2026-04-28 19:58 39.26039 9.02128 12270 ft 356 kts
2026-04-28 19:58 39.28510 9.02422 13182 ft 359 kts
2026-04-28 19:58 39.31007 9.02741 14000 ft 363 kts
2026-04-28 19:58 39.33536 9.03073 14736 ft 367 kts
2026-04-28 19:59 39.36095 9.03402 15491 ft 371 kts
2026-04-28 19:59 39.38678 9.03729 16202 ft 375 kts
2026-04-28 19:59 39.41286 9.04062 16916 ft 379 kts
2026-04-28 19:59 39.43926 9.04401 17615 ft 383 kts
2026-04-28 20:00 39.46588 9.04744 18306 ft 387 kts
2026-04-28 20:00 39.49285 9.05089 18861 ft 392 kts
2026-04-28 20:00 39.52034 9.05441 19002 ft 401 kts
2026-04-28 20:00 39.54795 9.05798 19004 ft 396 kts
2026-04-28 20:01 39.57529 9.06151 19012 ft 395 kts
2026-04-28 20:01 39.60271 9.06503 19594 ft 396 kts
2026-04-28 20:01 39.63020 9.06856 20192 ft 399 kts
2026-04-28 20:01 39.65748 9.07434 20744 ft 404 kts 13°
2026-04-28 20:02 39.68508 9.08375 21233 ft 408 kts 13°
2026-04-28 20:02 39.71269 9.09309 21799 ft 412 kts 13°
2026-04-28 20:02 39.74058 9.10243 22288 ft 416 kts 13°
2026-04-28 20:02 39.75920 9.10865 22635 ft 418 kts 13°
2026-04-28 20:03 39.78744 9.11813 23126 ft 421 kts 13°
2026-04-28 20:03 39.81600 9.12777 23607 ft 425 kts 13°
2026-04-28 20:03 39.85410 9.14065 24158 ft 428 kts 15°
2026-04-28 20:03 39.88225 9.15379 24525 ft 432 kts 20°
2026-04-28 20:04 39.90122 9.16329 24801 ft 433 kts 20°
2026-04-28 20:04 39.92944 9.17735 25225 ft 435 kts 20°
2026-04-28 20:04 39.95780 9.19143 25617 ft 438 kts 20°
2026-04-28 20:04 39.98630 9.20563 26016 ft 440 kts 20°
2026-04-28 20:05 40.01505 9.22001 26419 ft 442 kts 20°
2026-04-28 20:05 40.04385 9.23441 26823 ft 445 kts 20°
2026-04-28 20:05 40.07283 9.24889 27216 ft 447 kts 20°
2026-04-28 20:05 40.10192 9.26344 27608 ft 450 kts 20°
2026-04-28 20:06 40.13051 9.27778 28017 ft 452 kts 20°
2026-04-28 20:06 40.15995 9.29255 28432 ft 454 kts 20°
2026-04-28 20:06 40.18957 9.30741 28838 ft 457 kts 20°
2026-04-28 20:06 40.21932 9.32235 29243 ft 459 kts 20°
2026-04-28 20:07 40.24915 9.33736 29642 ft 462 kts 20°
2026-04-28 20:07 40.26951 9.34760 29933 ft 464 kts 20°
2026-04-28 20:07 40.30959 9.36780 30423 ft 467 kts 20°
2026-04-28 20:07 40.33997 9.38312 30787 ft 469 kts 20°
2026-04-28 20:08 40.37050 9.39853 31139 ft 471 kts 20°
2026-04-28 20:08 40.40120 9.41405 31511 ft 474 kts 20°
2026-04-28 20:08 40.43201 9.42963 31926 ft 474 kts 20°
2026-04-28 20:08 40.46275 9.44520 32468 ft 473 kts 20°
2026-04-28 20:09 40.49339 9.46072 32984 ft 472 kts 20°
2026-04-28 20:09 40.52394 9.47622 33486 ft 471 kts 20°
2026-04-28 20:09 40.55446 9.49172 33996 ft 470 kts 20°
2026-04-28 20:10 40.61613 9.52308 34029 ft 473 kts 20°
2026-04-28 20:10 40.67704 9.55413 34023 ft 468 kts 20°
2026-04-28 20:11 40.73775 9.58505 34020 ft 468 kts 20°
2026-04-28 20:11 40.79850 9.61610 34017 ft 469 kts 20°
2026-04-28 20:12 40.85935 9.64726 34016 ft 469 kts 20°
2026-04-28 20:12 40.92061 9.67673 34042 ft 466 kts 10°
2026-04-28 20:13 40.98428 9.69012 34036 ft 466 kts
2026-04-28 20:13 41.04849 9.70263 34033 ft 466 kts
2026-04-28 20:14 41.11306 9.71556 34039 ft 466 kts
2026-04-28 20:14 41.17675 9.72813 34044 ft 466 kts
2026-04-28 20:15 41.24083 9.74092 34053 ft 466 kts
2026-04-28 20:15 41.30480 9.75366 34054 ft 465 kts
2026-04-28 20:16 41.36871 9.76644 34057 ft 464 kts
2026-04-28 20:16 41.43245 9.77919 34054 ft 463 kts
2026-04-28 20:17 41.49618 9.79197 34060 ft 463 kts
2026-04-28 20:17 41.55986 9.80479 34057 ft 462 kts
2026-04-28 20:18 41.62345 9.81767 34059 ft 462 kts
2026-04-28 20:18 41.68703 9.83060 34067 ft 462 kts
2026-04-28 20:19 41.75056 9.84361 34072 ft 462 kts
2026-04-28 20:19 41.81402 9.85667 34066 ft 462 kts
2026-04-28 20:20 41.87757 9.86982 34061 ft 462 kts
2026-04-28 20:20 41.94108 9.88304 34063 ft 462 kts
2026-04-28 20:21 42.00467 9.89634 34064 ft 462 kts
2026-04-28 20:21 42.06806 9.90969 34065 ft 461 kts
2026-04-28 20:22 42.08903 9.91412 34062 ft 460 kts
2026-04-28 20:23 42.25320 9.94913 34067 ft 460 kts
2026-04-28 20:23 42.31642 9.96275 34065 ft 460 kts
2026-04-28 20:24 42.37962 9.97641 34066 ft 460 kts
2026-04-28 20:24 42.44279 9.99014 34065 ft 459 kts
2026-04-28 20:25 42.50583 10.00393 34064 ft 458 kts
2026-04-28 20:25 42.56881 10.01776 34065 ft 459 kts
2026-04-28 20:26 42.63177 10.03168 34064 ft 459 kts
2026-04-28 20:26 42.69479 10.04567 34067 ft 459 kts
2026-04-28 20:27 42.75780 10.05972 34068 ft 459 kts
2026-04-28 20:27 42.82069 10.07386 34065 ft 458 kts
2026-04-28 20:28 42.88342 10.08808 34068 ft 457 kts
2026-04-28 20:28 42.94625 10.10240 34063 ft 458 kts
2026-04-28 20:29 43.00900 10.11682 34065 ft 457 kts
2026-04-28 20:29 43.07169 10.13139 34068 ft 457 kts
2026-04-28 20:30 43.13394 10.14598 34065 ft 457 kts
2026-04-28 20:30 43.19656 10.16081 34065 ft 456 kts
2026-04-28 20:31 43.25913 10.17579 34066 ft 456 kts
2026-04-28 20:31 43.32164 10.19090 34060 ft 456 kts
2026-04-28 20:32 43.34232 10.19591 34064 ft 456 kts
2026-04-28 20:33 43.51073 10.23732 34076 ft 456 kts
2026-04-28 20:33 43.57325 10.25294 34081 ft 456 kts
2026-04-28 20:34 43.63571 10.26869 34084 ft 456 kts
2026-04-28 20:34 43.69761 10.28451 34007 ft 445 kts
2026-04-28 20:34 43.72806 10.29239 33611 ft 444 kts
2026-04-28 20:35 43.75836 10.30023 33289 ft 442 kts
2026-04-28 20:35 43.78857 10.30807 32953 ft 441 kts
2026-04-28 20:35 43.81857 10.31586 32515 ft 437 kts
2026-04-28 20:35 43.84831 10.32361 32014 ft 435 kts
2026-04-28 20:36 43.87801 10.33135 31486 ft 433 kts
2026-04-28 20:36 43.90761 10.33909 30974 ft 431 kts
2026-04-28 20:36 43.93705 10.34678 30464 ft 430 kts
2026-04-28 20:36 43.96600 10.35435 29935 ft 429 kts
2026-04-28 20:37 43.99533 10.36004 29449 ft 421 kts 359°
2026-04-28 20:37 44.02428 10.35928 28963 ft 413 kts 352°
2026-04-28 20:37 44.05272 10.35538 28469 ft 409 kts 349°
2026-04-28 20:37 44.07993 10.35119 27992 ft 406 kts 352°
2026-04-28 20:38 44.10793 10.34907 27517 ft 404 kts 355°
2026-04-28 20:38 44.13674 10.34788 27029 ft 400 kts 354°
2026-04-28 20:38 44.16444 10.34579 26553 ft 397 kts 352°
2026-04-28 20:38 44.19187 10.34317 26081 ft 395 kts 353°
2026-04-28 20:39 44.21909 10.34094 25607 ft 392 kts 353°
2026-04-28 20:39 44.24618 10.33901 25160 ft 390 kts 353°
2026-04-28 20:39 44.27312 10.33697 24705 ft 387 kts 353°
2026-04-28 20:39 44.29973 10.33480 24254 ft 385 kts 353°
2026-04-28 20:40 44.32625 10.33266 23814 ft 383 kts 353°
2026-04-28 20:40 44.35273 10.33061 23320 ft 380 kts 353°
2026-04-28 20:40 44.37866 10.32859 22875 ft 375 kts 353°
2026-04-28 20:40 44.40465 10.32654 22443 ft 370 kts 353°
2026-04-28 20:41 44.43019 10.32451 22007 ft 366 kts 353°
2026-04-28 20:41 44.45547 10.32252 21582 ft 363 kts 353°
2026-04-28 20:41 44.48052 10.32053 21155 ft 362 kts 353°
2026-04-28 20:41 44.49705 10.31922 20877 ft 362 kts 353°
2026-04-28 20:42 44.53119 10.31648 19720 ft 373 kts 353°
2026-04-28 20:42 44.55739 10.31440 18831 ft 381 kts 354°
2026-04-28 20:43 44.65669 10.30656 16866 ft 363 kts 354°
2026-04-28 20:43 44.68196 10.30454 16445 ft 356 kts 354°
2026-04-28 20:43 44.70632 10.30261 16043 ft 349 kts 354°
2026-04-28 20:44 44.73023 10.30070 15644 ft 343 kts 354°
2026-04-28 20:44 44.75338 10.29885 15260 ft 337 kts 354°
2026-04-28 20:44 44.77650 10.29700 14883 ft 331 kts 354°
2026-04-28 20:44 44.79957 10.29514 14503 ft 333 kts 355°
2026-04-28 20:45 44.82264 10.29306 14121 ft 331 kts 351°
2026-04-28 20:45 44.84507 10.28722 13738 ft 326 kts 348°
2026-04-28 20:45 44.86750 10.28229 13342 ft 327 kts 350°
2026-04-28 20:45 44.89001 10.27734 12963 ft 327 kts 349°
2026-04-28 20:46 44.91234 10.27190 12595 ft 324 kts 348°
2026-04-28 20:46 44.93434 10.26647 12226 ft 319 kts 349°
2026-04-28 20:46 44.95633 10.26121 11863 ft 321 kts 349°
2026-04-28 20:46 44.97826 10.25600 11501 ft 321 kts 349°
2026-04-28 20:47 45.00003 10.25079 11130 ft 314 kts 349°
2026-04-28 20:47 45.02120 10.24591 10784 ft 314 kts 353°
2026-04-28 20:47 45.04273 10.24930 10552 ft 302 kts 18°
2026-04-28 20:47 45.06047 10.26317 10432 ft 287 kts 40°
2026-04-28 20:48 45.07534 10.28105 10247 ft 280 kts 41°
2026-04-28 20:48 45.09003 10.29938 9975 ft 283 kts 42°
2026-04-28 20:48 45.10469 10.31786 9683 ft 281 kts 42°
2026-04-28 20:48 45.11929 10.33606 9409 ft 281 kts 41°
2026-04-28 20:49 45.13383 10.35411 9145 ft 275 kts 41°
2026-04-28 20:49 45.14824 10.37205 8879 ft 277 kts 41°
2026-04-28 20:49 45.16269 10.39011 8615 ft 277 kts 42°
2026-04-28 20:49 45.17470 10.41090 8353 ft 271 kts 66°
2026-04-28 20:50 45.17875 10.43628 8093 ft 261 kts 93°
2026-04-28 20:50 45.17473 10.46051 7832 ft 250 kts 117°
2026-04-28 20:50 45.16474 10.47974 7537 ft 242 kts 132°
2026-04-28 20:50 45.15462 10.49834 7204 ft 237 kts 117°
2026-04-28 20:51 45.15173 10.52102 6842 ft 239 kts 84°
2026-04-28 20:51 45.15829 10.54213 6548 ft 235 kts 56°
2026-04-28 20:51 45.16884 10.55964 6249 ft 233 kts 46°
2026-04-28 20:51 45.17630 10.57046 6040 ft 230 kts 46°
2026-04-28 20:52 45.19115 10.59199 5627 ft 226 kts 46°
2026-04-28 20:52 45.20208 10.60785 5330 ft 224 kts 46°
2026-04-28 20:52 45.21288 10.62351 5025 ft 221 kts 46°
2026-04-28 20:52 45.22359 10.63905 4756 ft 219 kts 46°
2026-04-28 20:53 45.25486 10.68423 3892 ft 207 kts 46°
2026-04-28 20:53 45.26481 10.69867 3616 ft 204 kts 47°
2026-04-28 20:54 45.27466 10.71297 3363 ft 201 kts 47°
2026-04-28 20:54 45.28435 10.72701 3097 ft 199 kts 47°
2026-04-28 20:54 45.29379 10.74060 2834 ft 186 kts 47°
2026-04-28 20:54 45.30252 10.75324 2595 ft 173 kts 47°
2026-04-28 20:55 45.31056 10.76490 2380 ft 158 kts 48°
2026-04-28 20:55 45.31802 10.77571 2166 ft 150 kts 48°
2026-04-28 20:55 45.32532 10.78633 1979 ft 150 kts 48°
2026-04-28 20:55 45.33256 10.79685 1779 ft 150 kts 48°
2026-04-28 20:56 45.33987 10.80750 1578 ft 151 kts 48°
2026-04-28 20:56 45.34719 10.81814 1370 ft 150 kts 48°
2026-04-28 20:56 45.35452 10.82874 1181 ft 151 kts 48°
2026-04-28 20:56 45.36187 10.83944 995 ft 151 kts 47°
2026-04-28 20:57 45.36927 10.85016 785 ft 152 kts 46°
2026-04-28 20:57 45.37663 10.86089 572 ft 151 kts 47°
2026-04-28 20:57 45.38391 10.87145 377 ft 150 kts 47°
2026-04-28 20:57 45.39114 10.88186 239 ft 140 kts 45°
2026-04-28 20:58 45.39643 10.88958 246 ft 76 kts 46°
2026-04-28 20:58 45.39917 10.89361 247 ft 36 kts 46°
2026-04-28 20:58 45.40078 10.89604 250 ft 32 kts 47°
2026-04-28 20:58 45.40229 10.89826 251 ft 31 kts 47°
2026-04-28 20:59 45.40292 10.90012 251 ft 20 kts 79°
2026-04-28 20:59 45.40319 10.90175 249 ft 11 kts 75°
2026-04-28 20:59 45.40321 10.90287 247 ft 11 kts 123°
2026-04-28 20:59 45.40269 10.90369 248 ft 11 kts 120°
2026-04-28 21:00 45.40284 10.90450 248 ft 9 kts 49°
2026-04-28 21:00 45.40323 10.90516 248 ft 6 kts 69°
2026-04-28 21:00 45.40316 10.90568 248 ft 5 kts 124°
2026-04-28 21:00 45.40305 10.90585 248 ft 0 kts 136°